Date String (YYYY-MM-DD hh:mm:ss) UTC,Instrument flags,absolute air pressure of the measurement (hPa),sample flow rate (lpm),inlet stack bypass flow (lpm),air temperature of the measurement (°C),ambient temperature measured by the external sensor (°C),aerosol sample conditioner tube jacket temperature (°C),OPC LED temperature (°C),internal box temperature (°C),relative humidity of the measurement (%),span deviation,mass concentration of particles derived from Lorenz-Mie calculation of OPC scattering (μg/m³),mass concentration of particles derived from Lorenz-Mie calculation of OPC scattering (μg/m³),mass concentration of particles derived from Lorenz-Mie calculation of OPC scattering (μg/m³)
DateTimeUTC,F1_M11,P_M11,Q1_M11,Q2_M11,T1_M11,T2_M11,T3_M11,T4_M11,T5_M11,U1_M11,ZSPAN_M11,X0_M11,X2_M11,X1_M11
2023-07-25 23:00:00,SystemResetWarning,0834.0,4.99,000.00,028.5,026.7,000.0,036.8,030.2,20.3,0000.0,0012.26,0003.24,0001.89
2023-07-25 23:01:00,SystemResetWarning,0834.0,4.99,000.00,028.5,027.0,000.0,036.8,030.3,20.5,0000.0,0012.31,0003.27,0001.95
2023-07-25 23:02:00,SystemResetWarning,0833.9,5.00,000.00,028.6,026.5,000.0,036.8,030.2,20.6,0000.0,0012.93,0003.34,0002.01
2023-07-25 23:03:00,SystemResetWarning,0833.9,5.01,000.00,028.5,025.0,000.0,036.7,029.8,20.5,0000.0,0012.91,0003.36,0002.03
2023-07-25 23:04:00,SystemResetWarning,0833.9,5.01,000.00,028.4,024.7,000.0,036.6,029.7,20.2,0000.0,0012.20,0003.36,0002.05
2023-07-25 23:05:00,SystemResetWarning,0834.1,5.01,000.00,028.3,025.1,000.0,036.6,029.7,20.4,0000.0,0014.52,0003.51,0002.06
2023-07-25 23:06:00,SystemResetWarning,0834.1,4.99,000.00,028.3,025.6,000.0,036.7,029.8,20.8,0000.0,0014.58,0003.62,0002.06
2023-07-25 23:07:00,SystemResetWarning,0834.2,5.00,000.00,028.3,026.0,000.0,036.7,029.9,20.9,0000.0,0015.15,0003.64,0002.03
2023-07-25 23:08:00,SystemResetWarning,0834.4,5.00,000.00,028.4,026.5,000.0,036.7,030.1,21.2,0000.0,0015.91,0003.63,0001.99
2023-07-25 23:09:00,SystemResetWarning,0834.2,5.00,000.00,028.4,026.8,000.0,036.7,030.2,21.2,0000.0,0015.80,0003.58,0001.93
2023-07-25 23:10:00,SystemResetWarning,0834.2,4.99,000.00,028.5,027.0,000.0,036.7,030.2,21.2,0000.0,0016.59,0003.63,0001.87
2023-07-25 23:11:00,SystemResetWarning,0834.1,4.99,000.00,028.5,025.7,000.0,036.7,029.9,20.9,0000.0,0018.27,0003.75,0001.79
2023-07-25 23:12:00,SystemResetWarning,0834.0,5.00,000.00,028.4,024.5,000.0,036.6,029.6,21.1,0000.0,0018.27,0003.77,0001.69
2023-07-25 23:13:00,SystemResetWarning,0833.9,5.00,000.00,028.3,024.7,000.0,036.5,029.6,21.3,0000.0,0017.63,0003.74,0001.57
2023-07-25 23:14:00,SystemResetWarning,0833.8,5.01,000.00,028.3,025.1,000.0,036.6,029.6,21.5,0000.0,0018.66,0003.71,0001.47
2023-07-25 23:15:00,SystemResetWarning,0833.7,4.99,000.00,028.3,025.6,000.0,036.6,029.7,21.5,0000.0,0020.44,0003.70,0001.38
2023-07-25 23:16:00,SystemResetWarning,0833.7,5.00,000.00,028.3,026.1,000.0,036.6,029.9,21.5,0000.0,0019.15,0003.52,0001.30
2023-07-25 23:17:00,SystemResetWarning,0833.6,5.00,000.00,028.3,026.5,000.0,036.6,030.0,21.2,0000.0,0019.30,0003.44,0001.23
2023-07-25 23:18:00,SystemResetWarning,0833.4,5.01,000.00,028.4,026.8,000.0,036.7,030.1,21.1,0000.0,0018.60,0003.45,0001.17
2023-07-25 23:19:00,SystemResetWarning,0833.2,4.99,000.00,028.4,027.2,000.0,036.7,030.2,21.2,0000.0,0018.07,0003.41,0001.10
2023-07-25 23:20:00,SystemResetWarning,0833.0,4.99,000.00,028.5,027.3,000.0,036.7,030.3,21.3,0000.0,0018.55,0003.32,0001.07
2023-07-25 23:21:00,SystemResetWarning,0833.2,5.00,000.00,028.5,026.2,000.0,036.7,030.0,21.0,0000.0,0017.88,0003.21,0001.03
2023-07-25 23:22:00,SystemResetWarning,0833.0,5.01,000.00,028.4,024.7,000.0,036.6,029.8,20.8,0000.0,0016.09,0002.89,0000.98
2023-07-25 23:23:00,SystemResetWarning,0833.3,5.01,000.00,028.4,024.8,000.0,036.5,029.7,21.2,0000.0,0015.45,0002.75,0000.97
2023-07-25 23:24:00,SystemResetWarning,0832.8,5.00,000.00,028.3,025.2,000.0,036.6,029.7,21.8,0000.0,0015.12,0002.58,0000.95
2023-07-25 23:25:00,SystemResetWarning,0832.9,5.00,000.00,028.3,025.6,000.0,036.6,029.8,21.2,0000.0,0014.30,0002.45,0000.94
2023-07-25 23:26:00,SystemResetWarning,0833.2,4.99,000.00,028.3,026.1,000.0,036.6,029.9,20.9,0000.0,0012.45,0002.24,0000.91
2023-07-25 23:27:00,SystemResetWarning,0833.0,5.00,000.00,028.4,026.5,000.0,036.7,030.1,21.0,0000.0,0010.54,0002.11,0000.88
2023-07-25 23:28:00,SystemResetWarning,0832.9,5.00,000.00,028.4,026.9,000.0,036.7,030.2,21.4,0000.0,0009.34,0001.99,0000.87
2023-07-25 23:29:00,SystemResetWarning,0833.2,4.99,000.00,028.5,027.2,000.0,036.7,030.3,21.1,0000.0,0008.80,0001.86,0000.87
2023-07-25 23:30:00,SystemResetWarning,0832.8,4.99,000.00,028.6,027.0,000.0,036.7,030.3,21.2,0000.0,0008.45,0001.76,0000.87
2023-07-25 23:31:00,SystemResetWarning,0832.8,5.00,000.00,028.5,025.3,000.0,036.6,030.1,21.1,0000.0,0006.50,0001.69,0000.86
2023-07-25 23:32:00,SystemResetWarning,0832.8,5.00,000.00,028.4,024.6,000.0,036.6,029.9,20.5,0000.0,0006.13,0001.60,0000.85
2023-07-25 23:33:00,SystemResetWarning,0832.8,5.01,000.00,028.4,024.9,000.0,036.6,029.8,20.8,0000.0,0006.51,0001.62,0000.85
2023-07-25 23:34:00,SystemResetWarning,0832.7,5.00,000.00,028.4,025.3,000.0,036.6,029.8,21.3,0000.0,0006.87,0001.59,0000.84
2023-07-25 23:35:00,SystemResetWarning,0832.7,4.99,000.00,028.4,025.8,000.0,036.7,029.9,21.4,0000.0,0006.89,0001.60,0000.84
2023-07-25 23:36:00,SystemResetWarning,0832.8,5.00,000.00,028.4,026.3,000.0,036.7,030.0,21.4,0000.0,0006.28,0001.59,0000.83
2023-07-25 23:37:00,SystemResetWarning,0832.9,5.00,000.00,028.4,026.7,000.0,036.7,030.1,20.9,0000.0,0006.07,0001.55,0000.83
2023-07-25 23:38:00,SystemResetWarning,0833.0,5.01,000.00,028.5,027.1,000.0,036.8,030.2,20.6,0000.0,0006.01,0001.58,0000.85
2023-07-25 23:39:00,SystemResetWarning,0832.9,5.01,000.00,028.6,027.3,000.0,036.8,030.3,20.7,0000.0,0006.06,0001.54,0000.84
2023-07-25 23:40:00,SystemResetWarning,0833.2,4.98,000.00,028.6,026.5,000.0,036.7,030.3,20.5,0000.0,0006.04,0001.53,0000.85
2023-07-25 23:41:00,SystemResetWarning,0832.8,5.01,000.00,028.5,024.9,000.0,036.6,030.0,20.9,0000.0,0005.67,0001.54,0000.83
2023-07-25 23:42:00,SystemResetWarning,0832.7,5.01,000.00,028.5,024.8,000.0,036.6,029.9,21.2,0000.0,0006.07,0001.61,0000.84
2023-07-25 23:43:00,SystemResetWarning,0832.8,5.00,000.00,028.4,025.2,000.0,036.6,029.9,21.1,0000.0,0007.23,0001.64,0000.84
2023-07-25 23:44:00,SystemResetWarning,0832.8,5.01,000.00,028.4,025.6,000.0,036.7,029.9,20.4,0000.0,0006.73,0001.62,0000.83
2023-07-25 23:45:00,SystemResetWarning,0832.9,5.00,000.00,028.4,026.1,000.0,036.7,030.0,19.6,0000.0,0006.14,0001.57,0000.82
2023-07-25 23:46:00,SystemResetWarning,0833.1,5.00,000.00,028.5,026.5,000.0,036.7,030.1,18.6,0000.0,0005.84,0001.55,0000.82
2023-07-25 23:47:00,SystemResetWarning,0833.1,5.00,000.00,028.5,026.9,000.0,036.8,030.2,19.2,0000.0,0006.71,0001.50,0000.82
2023-07-25 23:48:00,SystemResetWarning,0832.9,5.01,000.00,028.6,027.2,000.0,036.8,030.3,20.2,0000.0,0006.96,0001.54,0000.83
2023-07-25 23:49:00,SystemResetWarning,0833.0,5.00,000.00,028.6,027.5,000.0,036.8,030.4,20.1,0000.0,0007.22,0001.55,0000.84
2023-07-25 23:50:00,SystemResetWarning,0833.0,4.98,000.00,028.7,026.9,000.0,036.8,030.4,19.8,0000.0,0007.16,0001.54,0000.85
2023-07-25 23:51:00,SystemResetWarning,0832.9,5.00,000.00,028.6,025.2,000.0,036.7,030.1,19.5,0000.0,0008.07,0001.49,0000.84
2023-07-25 23:52:00,SystemResetWarning,0833.1,5.01,000.00,028.5,024.9,000.0,036.6,030.0,19.2,0000.0,0008.34,0001.45,0000.84
2023-07-25 23:53:00,SystemResetWarning,0833.2,5.01,000.00,028.5,025.3,000.0,036.7,029.9,20.2,0000.0,0008.16,0001.42,0000.84
2023-07-25 23:54:00,SystemResetWarning,0833.4,5.00,000.00,028.5,025.7,000.0,036.7,029.9,19.8,0000.0,0007.30,0001.35,0000.84
2023-07-25 23:55:00,SystemResetWarning,0833.4,5.00,000.00,028.5,026.2,000.0,036.8,030.1,19.8,0000.0,0007.31,0001.36,0000.85
2023-07-25 23:56:00,SystemResetWarning,0833.1,5.00,000.00,028.5,026.6,000.0,036.8,030.2,19.7,0000.0,0007.30,0001.36,0000.84
2023-07-25 23:57:00,SystemResetWarning,0833.1,5.00,000.00,028.6,027.0,000.0,036.8,030.3,20.7,0000.0,0007.21,0001.35,0000.84
2023-07-25 23:58:00,SystemResetWarning,0833.1,4.99,000.00,028.6,027.3,000.0,036.8,030.4,21.1,0000.0,0006.29,0001.37,0000.84
2023-07-25 23:59:00,SystemResetWarning,0833.2,4.99,000.00,028.7,026.8,000.0,036.8,030.4,21.0,0000.0,0005.93,0001.37,0000.84
